Theta_e
353 354 353 353 353 352 351 351 352 351 352 355 354 351 349 348 350 347 346 352 348 347 346 346 352 356 354 354 356 354 355 356 354
353 354 354 354 353 352 351 352 354 354 353 355 356 352 351 351 350 347 347 350 351 352 348 346 348 349 354 354 353 354 355 354 355
348 352 352 352 354 353 352 351 352 354 354 357 357 353 354 353 352 351 351 352 355 352 350 350 351 352 351 353 352 353 354 353 355
344 345 349 350 351 352 353 352 351 353 355 357 358 356 354 353 354 352 351 353 354 353 354 353 353 353 353 351 351 354 355 354 352
340 341 344 346 349 351 352 353 353 353 353 353 356 356 355 355 355 354 355 353 352 354 355 356 356 356 354 353 350 352 355 356 351
338 339 340 341 345 351 352 353 354 354 353 353 354 356 356 357 357 357 356 356 354 353 355 357 357 358 358 356 353 351 354 356 356
343 342 339 342 345 349 352 354 357 357 354 353 353 354 354 357 359 358 357 356 356 355 356 358 358 359 359 358 356 353 351 353 356
342 342 344 341 344 347 351 354 359 358 355 355 354 355 354 357 359 359 358 357 357 358 358 358 359 359 359 359 357 354 352 350 352
343 343 345 346 347 347 349 352 355 359 358 357 356 357 355 355 359 360 360 359 358 359 359 359 360 360 360 359 356 351 350 350 351
341 342 343 346 348 349 348 347 351 356 359 357 357 359 357 356 359 361 361 360 360 361 361 360 361 361 361 360 360 352 350 348 350
337 339 339 340 343 347 347 346 346 350 355 359 359 359 361 358 360 362 362 362 363 363 363 362 362 363 362 361 360 357 353 351 349
332 334 335 336 338 343 347 349 349 348 353 358 361 362 362 361 361 363 364 364 364 364 364 364 364 364 363 363 361 358 355 354 353
329 330 331 333 336 345 348 350 353 351 350 357 362 361 362 363 362 363 365 365 364 364 364 364 361 362 363 363 363 361 358 355 354
326 327 327 331 334 344 351 354 358 357 353 356 359 360 362 364 363 364 365 365 365 365 364 361 363 362 363 364 362 363 362 358 356
325 326 325 329 330 339 343 356 362 361 358 356 358 360 362 363 364 363 363 365 366 365 365 365 365 364 364 360 362 361 361 360 359
324 322 322 325 327 332 331 339 356 355 359 358 359 361 362 363 363 363 362 365 366 365 365 362 362 362 361 357 356 361 360 358 358
323 320 320 323 325 329 329 331 333 341 346 357 359 362 363 363 363 363 362 363 364 362 361 362 359 359 359 357 355 354 360 361 360
320 319 320 323 325 325 327 327 327 328 331 344 359 360 360 361 361 361 363 361 360 361 359 359 359 355 356 358 359 359 358 361 363
318 318 321 322 326 325 325 325 323 325 327 329 346 358 360 360 360 362 361 360 358 358 358 358 357 357 357 360 358 358 360 360 362
316 318 319 323 325 323 324 325 323 323 324 327 330 341 352 361 360 361 360 360 360 360 356 356 357 357 357 357 358 359 360 362 362
Wind_Speed
23 24 23 23 24 31 36 38 37 36 37 36 36 35 33 32 27 24 24 19 18 18 15 15 16 14 14 13 12 10 10 10 10
23 24 23 25 24 32 35 37 37 38 36 38 36 37 34 32 31 30 26 23 25 16 15 13 11 13 14 15 14 13 14 11 11
19 25 24 22 23 31 35 37 39 38 37 39 40 38 37 36 34 33 28 25 22 21 19 17 8 14 15 15 16 15 16 14 15
17 18 21 21 22 31 35 35 36 39 38 37 37 38 37 36 34 34 34 28 25 25 19 17 18 15 14 16 17 16 17 17 12
20 19 19 19 22 27 32 35 36 38 40 41 40 39 38 38 36 36 34 33 31 26 24 22 21 20 19 18 19 19 19 18 17
12 7 10 12 15 19 26 34 33 37 38 39 39 38 39 37 37 36 35 33 32 30 28 26 24 23 23 21 20 20 20 20 20
11 8 6 10 12 16 23 29 31 31 35 37 37 38 39 39 38 38 37 34 34 33 31 29 27 26 25 24 23 22 22 22 22
5 5 7 4 11 14 19 24 27 31 33 34 37 36 36 38 39 38 36 37 35 33 32 30 29 27 26 26 25 25 26 25 23
6 6 7 7 8 9 9 20 25 28 32 33 35 35 37 36 37 37 38 37 35 33 32 31 30 29 28 28 28 28 28 28 25
7 9 9 10 9 8 12 14 22 27 30 32 33 31 34 33 34 35 36 36 35 35 33 31 31 30 29 29 31 29 29 31 28
9 11 12 11 11 13 12 15 21 25 30 33 32 33 32 35 35 35 35 34 34 34 33 34 32 31 31 30 30 31 32 30 31
10 12 14 15 17 20 16 18 20 22 28 31 33 33 36 37 36 35 34 35 34 33 31 30 31 31 31 31 30 31 34 32 27
14 16 16 18 22 25 18 20 21 24 24 29 34 38 37 34 35 35 35 35 35 34 32 32 32 31 30 31 30 31 34 34 28
15 17 19 20 18 18 21 21 22 24 28 30 32 32 32 32 34 34 34 32 31 32 33 31 30 28 28 29 30 30 32 35 33
12 14 20 21 20 19 23 24 25 19 24 24 25 27 30 32 32 33 32 31 29 28 27 26 25 26 24 28 28 30 31 33 35
11 16 19 20 19 17 22 24 25 10 17 19 21 24 26 28 30 31 29 31 29 28 27 28 28 26 27 28 27 27 31 34 35
11 15 17 18 17 18 20 26 28 26 24 11 18 22 23 26 28 29 30 30 29 28 28 28 26 26 25 25 25 26 25 30 35
13 15 16 14 15 17 20 23 26 29 30 19 11 20 24 25 27 29 29 27 29 29 27 28 27 25 24 23 23 25 25 22 20
14 15 16 10 11 14 18 21 25 28 29 30 13 15 18 24 26 27 29 29 18 23 19 23 20 16 16 11 15 13 18 23 18
14 12 15 10 7 10 13 17 21 27 28 27 27 19 6 20 25 26 27 26 26 21 16 14 13 19 17 12 8 5 3 8 15
Wind_Direction
193 196 194 197 196 195 194 199 195 198 192 192 194 197 199 204 205 205 211 207 206 211 216 207 175 186 205 216 201 204 201 198 210
183 191 200 194 196 200 199 197 197 196 195 193 197 197 197 200 204 208 207 211 215 219 218 219 195 209 211 214 216 213 203 217 211
192 188 193 201 199 198 201 201 199 197 198 195 196 198 197 198 199 205 211 209 210 215 221 227 216 204 214 218 219 216 215 216 206
209 215 194 198 198 199 201 202 201 200 199 199 198 201 201 201 199 202 207 210 207 215 219 219 217 218 214 217 216 214 214 227 236
216 215 208 198 192 196 195 201 201 201 202 203 202 204 202 202 201 201 204 207 213 209 212 215 218 216 216 217 218 216 214 221 224
223 253 241 223 191 189 197 197 203 202 203 203 205 204 203 203 204 204 204 204 206 208 208 209 215 217 217 214 216 217 218 222 227
26 4 332 297 202 191 192 199 197 202 203 205 205 203 207 205 204 206 205 203 205 206 207 207 210 214 216 216 216 218 221 222 226
358 341 322 286 256 212 191 195 196 198 208 205 204 202 203 206 205 205 205 205 205 206 208 209 211 212 215 216 218 220 219 223 224
345 335 333 330 323 310 214 194 200 198 205 208 206 200 203 204 202 202 204 205 206 206 205 207 210 213 214 216 220 224 223 217 223
340 325 331 330 320 301 292 266 208 209 203 211 207 208 202 203 201 202 204 203 202 203 204 206 210 214 215 219 222 225 226 225 223
333 330 325 321 308 303 282 262 261 210 211 203 213 206 203 201 201 202 202 203 204 202 203 206 209 214 216 219 225 227 228 229 230
347 333 320 313 308 293 292 278 270 261 202 205 206 210 208 201 201 200 202 203 202 203 205 209 213 216 216 218 224 228 230 228 228
353 336 332 320 316 314 296 276 253 248 234 204 203 209 207 204 203 203 204 205 203 202 205 211 217 219 219 220 224 226 229 230 227
344 341 341 332 332 318 303 289 273 236 237 210 210 205 205 205 204 205 207 207 206 204 205 212 215 221 221 223 225 226 231 232 224
341 343 350 346 343 342 341 328 302 232 225 221 198 200 200 202 202 204 202 204 204 206 205 209 213 217 223 226 228 231 233 233 231
337 343 349 352 345 352 355 352 352 247 228 182 187 194 199 201 201 201 205 196 199 200 203 211 215 216 222 228 227 230 234 235 236
326 337 340 348 356 356 352 1 8 11 1 209 196 195 202 201 198 201 205 196 200 204 206 209 218 217 222 226 228 230 227 227 231
325 325 326 341 351 357 359 4 3 6 6 5 226 206 207 201 201 199 201 204 200 205 211 211 210 218 216 225 228 231 230 222 210
319 314 311 340 352 1 0 4 4 0 7 8 333 222 210 201 204 193 202 201 191 200 195 212 219 217 225 234 242 231 219 216 213
313 314 317 314 15 3 5 7 4 360 359 1 4 358 319 208 212 188 202 195 197 188 202 213 221 223 236 253 270 4 261 227 225